NOTL Parkway

*Note: All times are displayed in the local standard time of the station location.
**Rain - Equipment is designed to accurately record liquid precipitation; under conditions when precipitation is not in liquid form, the data displayed may not properly reflect rainfall values.

Date Max Temp
(°C)
Min Temp
(°C)
Avg Temp
(°C)
Rain (mm) Avg RH (%)
Fri, Feb 15, 2019 5.5 -3.7 1.6 1.8 75.3
Thu, Feb 14, 2019 5.9 -4.0 -0.1 0.0 69.6
Wed, Feb 13, 2019 1.6 -4.6 -2.1 0.4 78.6
Tue, Feb 12, 2019 2.4 -5.1 -2.1 7.4 89.4
Mon, Feb 11, 2019 -1.9 -4.8 -3.3 0.0 77.0
Sun, Feb 10, 2019 -3.0 -8.3 -5.3 0.0 71.0
Sat, Feb 09, 2019 -3.7 -9.0 -6.2 0.0 65.8
DateTime Avg Temp (°C) Rain (mm) RH (%)
Sat, Feb 16, 2019 16:00 -2.3 0.0 64.4
Sat, Feb 16, 2019 15:00 -2.7 0.0 66.4
Sat, Feb 16, 2019 14:00 -2.9 0.0 67.4
Sat, Feb 16, 2019 13:00 -3.3 0.0 67.5
Sat, Feb 16, 2019 12:00 -3.3 0.0 66.8
Sat, Feb 16, 2019 11:00 -3.1 0.0 66.8
Sat, Feb 16, 2019 10:00 -3.0 0.0 65.2
Sat, Feb 16, 2019 09:00 -3.3 0.0 66.4
Sat, Feb 16, 2019 08:00 -3.9 0.0 68.5
Sat, Feb 16, 2019 07:00 -3.8 0.0 66.6
Sat, Feb 16, 2019 06:00 -2.9 0.0 66.8
Sat, Feb 16, 2019 05:00 -2.6 0.0 75.1
Sat, Feb 16, 2019 04:00 -3.2 0.0 81.2
Sat, Feb 16, 2019 03:00 -3.2 0.0 79.2
Sat, Feb 16, 2019 02:00 -3.3 0.0 75.9
Sat, Feb 16, 2019 01:00 -3.4 0.0 74.6
Sat, Feb 16, 2019 00:00 -3.6 0.0 73.0
Fri, Feb 15, 2019 23:00 -3.6 0.0 71.2
Fri, Feb 15, 2019 22:00 -3.2 0.0 69.5
Fri, Feb 15, 2019 21:00 -2.6 0.0 67.6
Fri, Feb 15, 2019 20:00 -1.9 0.0 69.3
Fri, Feb 15, 2019 19:00 -1.4 0.0 69.1
Fri, Feb 15, 2019 18:00 -1.0 0.0 69.5
Fri, Feb 15, 2019 17:00 -0.2 0.0 69.2
Fri, Feb 15, 2019 16:00 0.4 0.0 71.1
Fri, Feb 15, 2019 15:00 0.9 0.0 74.3
Fri, Feb 15, 2019 14:00 1.9 0.0 68.9
Fri, Feb 15, 2019 13:00 2.6 0.0 65.5
Fri, Feb 15, 2019 12:00 3.1 0.0 72.3
Fri, Feb 15, 2019 11:00 3.4 0.0 81.8
Fri, Feb 15, 2019 10:00 4.4 0.0 87.1
Fri, Feb 15, 2019 09:00 4.6 0.0 89.6
Fri, Feb 15, 2019 08:00 4.6 0.4 92.2
Fri, Feb 15, 2019 07:00 4.3 0.0 94.0
Fri, Feb 15, 2019 06:00 4.5 0.8 91.7
Fri, Feb 15, 2019 05:00 4.4 0.4 87.6
Fri, Feb 15, 2019 04:00 5.3 0.0 72.8
Fri, Feb 15, 2019 03:00 4.9 0.2 64.2
Fri, Feb 15, 2019 02:00 3.9 0.0 65.8
Fri, Feb 15, 2019 01:00 3.6 0.0 69.6
Fri, Feb 15, 2019 00:00 5.5 0.0 59.3
Thu, Feb 14, 2019 23:00 3.5 0.0 64.0
Thu, Feb 14, 2019 22:00 2.2 0.0 70.2
Thu, Feb 14, 2019 21:00 1.6 0.0 71.2
Thu, Feb 14, 2019 20:00 1.3 0.0 69.1
Thu, Feb 14, 2019 19:00 1.6 0.0 65.8
Thu, Feb 14, 2019 18:00 2.0 0.0 61.0
Thu, Feb 14, 2019 17:00 2.4 0.0 58.0


asterix Register now to access more data! asterix